CZ-3A DEB, 36966

Orbit data source: Space-Track

CZ-3A DEB, 36966 is space debris in HEO originally from a launch on Fri, 02 Feb 2007 UTC launched from the Xichang Space Center, China (XSC). Debris objects in space refer to the collection of defunct objects orbiting the Earth. Examples of debris include non-operational satellites, rocket bodies, and fragments generated from explosions, collisions, or faulty payload assembly.

Loading next visibility...
Identifier
36966, 2007-003AC
Orbit
HEO
Last TLE update
1 year ago
Origin
Manufacturer
Unknown
Mission
Spacecraft
Bus & Motor
Unknown
Mass
Unknown
Launch date (UTC)
2007-02-02 (18 years ago)
Launch vehicle
Unknown
Launch site
Xichang Space Center, China (XSC)
Object type
Payload
Rocket body
Debris
Shape & HBR
Unknown
Radar Cross Section
Medium (>0.1 m² and <1 m²)

Expand to show TLE details & history

TLE from 1 year ago
0 CZ-3A DEB
1 36966U 07003AC  24183.39007069 -.00000107  00000-0  16891-1 0  9997
2 36966  24.3223  99.8939 7348744 231.3656 335.0213  1.89676484 74964
Epoch: 2024-07-01T09:21Z
TLE epoch observation values (Epoch: 2024-07-01T09:21:42.107Z)
Latitude
21.45355°
Longitude
159.35686°
Altitude
11,637.452 km
Speed
5.458 km/s
True Right ascension
14h 38m 49s
True Declination
21° 24' 26"
Sunlit
Object was in daylight at epoch
Visualization orbit readout
Latitude
-13.94257°
Longitude
158.02349°
Altitude
41,467.835 km
Speed
1.482 km/s
Apparent Right ascension
14h 11m 06s
Apparent Declination
-17° 57' 52"
Sunlit
Object is in daylight
Visualization observer readout
Local Sidereal Time
21:40:34
Azimuth
269.722° W
Elevation
-28.396°
Doppler factor
1
Orbital elements
Apogee altitude
41,454.168 km
Perigee altitude
931.654 km
Semi-major axis
27,571.048 km
Eccentricity
0.73487
Inclination
24.3223°
RAAN
99.8939°
Arg. of periapsis
231.3656°
True anomaly
Unknown
Mean anomaly
335.0213°
Eccentric anomaly
Unknown
Mean motion
0.47409 °/min
Orbital period
759.35 mins
BSTAR
0.016891
Loading maneuver chart data...
Loading SW <> Apogee altitude chart data...
Loading historical data...
Loading historical data...
Loading historical data...
Loading historical data...
Loading historical data...
Loading historical data...
Loading historical data...

CZ-3A DEB Visibility forecast

Observer location: undefined°, undefined°

Span
Click to sort rows by Start time (UTC) header in descending order
Start Az.
Max El. time (UTC)
Max El. Az.
Max El.
End time (UTC)
End Az.
12 mins2025-07-01 16:20:11.700Z191.312° SSW2025-07-01 16:24:11.700Z144.451° SSE19.346°2025-07-01 16:32:11.700Z102.776° ESE
|